GALAXY 8

导读

GALAXY 8(银河8号)是美国休斯通信公司运营的通信卫星,于1997年12月8日发射升空,属于美国银河系列通信卫星的组成部分。卫星运行于地球静止轨道,搭载多频段转发器,主要为美国本土提供广播电视、语音通信、数据传输等服务,依托高功率设计保障通信稳定性,支撑区域通信网络的高效运行,是该系列卫星组网服务中的重要节点。

基本信息
目录编号:
25086
目录名称:
GALAXY 8
国际标识:
1997-078A
轨道中心:
EARTH
卫星名称:
GALAXY 8
卫星全名:
--
卫星状态:
在轨 (已飞行10413 天)
发射日期:
1997-12-08 UTC
国别 :
美国 (US)
星等 :
--
轨道信息
数据来源 国际轨道数据 AOE轨道数据
星历时间 2026-06-12T13:35:40+0800
14小时前
查看轨道信息
2026-06-12T23:00:00+0800
5小时前
查看轨道信息
半长轴 42326.894km 42326.724km
偏心率 0.0008183 0.0008079
轨道倾角 14.046° 14.046°
近地点辐角 53.601° 53.113°
升交点赤经 9.936° 9.934°
平近点角 164.301° 305.449°
近地点 35914.12km 35914.391km
远地点 35983.394km 35982.783km
周期 1444.389分钟 1444.381分钟
每日圈数 0.996961 0.996967
详细信息
使用方式:
暂无
2D轨道图
3D轨道图
轨道高度分析图
轨道倾角分析图
轨道综合分析图
查看轨道综合分析图